This is the latest recevied weather packets stored in our database for station/object N7CEE. If no packets are shown the sender has not sent any weather packets the latest 10 day(s).
| Time | Temp. | Humidity | Pressure | Rain* | Wind** | Luminosity | Snow |
|---|---|---|---|---|---|---|---|
| 1777501715 | 18.33° C | 16% | 1022.6 hPa | 0 mm | - | 568 W/m² | - |
| 1777501413 | 18.89° C | 16% | 1022.9 hPa | 0 mm | - | 581 W/m² | - |
| 1777501110 | 18.33° C | 17% | 1022.9 hPa | 0 mm | - | 593 W/m² | - |
| 1777500809 | 18.89° C | 16% | 1022.8 hPa | 0 mm | - | 609 W/m² | - |
| 1777500505 | 19.44° C | 16% | 1022.8 hPa | 0 mm | - | 623 W/m² | - |
| 1777500201 | 18.89° C | 16% | 1023 hPa | 0 mm | - | 635 W/m² | - |
| 1777499893 | 18.89° C | 16% | 1022.9 hPa | 0 mm | - | 647 W/m² | - |
| 1777499589 | 18.33° C | 16% | 1023.1 hPa | 0 mm | - | 660 W/m² | - |
| 1777499286 | 18.33° C | 16% | 1022.9 hPa | 0 mm | - | 673 W/m² | - |
| 1777498984 | 18.89° C | 16% | 1022.9 hPa | 0 mm | - | 683 W/m² | - |
| 1777498680 | 18.89° C | 17% | 1023.2 hPa | 0 mm | - | 696 W/m² | - |
| 1777498376 | 18.89° C | 16% | 1023.1 hPa | 0 mm | - | 707 W/m² | - |
| 1777498074 | 18.89° C | 17% | 1023.1 hPa | 0 mm | - | 718 W/m² | - |
| 1777497770 | 19.44° C | 17% | 1023.2 hPa | 0 mm | - | 727 W/m² | - |
| 1777497467 | 19.44° C | 18% | 1023.2 hPa | 0 mm | - | 737 W/m² | - |
| 1777497163 | 19.44° C | 18% | 1023.4 hPa | 0 mm | - | 746 W/m² | - |
| 1777496860 | 19.44° C | 17% | 1023.2 hPa | 0 mm | - | 755 W/m² | - |
| 1777496557 | 18.89° C | 18% | 1023.1 hPa | 0 mm | - | 765 W/m² | - |
| 1777496253 | 18.89° C | 18% | 1023.5 hPa | 0 mm | - | 773 W/m² | - |
| 1777495949 | 20° C | 18% | 1023.5 hPa | 0 mm | - | 778 W/m² | - |
| 1777495645 | 18.89° C | 18% | 1023.7 hPa | 0 mm | - | 787 W/m² | - |
| 1777495342 | 18.89° C | 18% | 1023.7 hPa | 0 mm | - | 793 W/m² | - |
| 1777495039 | 18.89° C | 19% | 1023.4 hPa | 0 mm | - | 802 W/m² | - |
| 1777494736 | 19.44° C | 20% | 1023.2 hPa | 0 mm | - | 806 W/m² | - |
| 1777494433 | 20° C | 20% | 1023.4 hPa | 0 mm | - | 813 W/m² | - |
* Rain latest hour (hover to see other rain measurements)
** Current wind speed in m/s (hover to see current wind gust speed)